Regional Weather Roundup
Issued by NWS Bismarck, ND

Home | Current Version | Previous Version | Text Only | Print | Product List | Glossary On
Versions: 1 2 3 4 5 6 7 8 9 10 11 12 13 14 15 16 17 18 19 20 21 22 23 24 25 26 27 28 29 30 31 32 33 34 35 36 37 38 39 40 41 42 43 44 45 46 47 48 49 50
000
ASUS43 KBIS 231510
RWRBIS

NWR BROADCAST TEXT
NATIONAL WEATHER SERVICE BISMARCK ND
1000 AM CDT THU MAR 23 2017

NOTE: "FAIR" INDICATES FEW OR NO CLOUDS BELOW 12,000 FEET WITH NO
SIGNIFICANT WEATHER AND/OR OBSTRUCTIONS TO VISIBILITY.


CITY           SKY/WX    TMP DP  RH WIND       PRES   REMARKS
WILLISTON      FAIR      37  33  85 CALM      29.77R
MINOT          FAIR      38  31  76 W5        29.73S
MINOT AFB      CLOUDY    35  32  87 CALM      29.73R
BISMARCK       LGT RAIN  36  33  89 VRB3      29.77R FOG
DICKINSON      CLOUDY    39  34  82 W8        29.72R
GARRISON         N/A     34  30  85 CALM      29.73S
HETTINGER ARPT CLOUDY    41  38  89 NE3       29.73R
JAMESTOWN      LGT RAIN  35  32  88 S10       29.78F
HAZEN          PTSUNNY   36  30  80 CALM      29.77R
MANDAN         LGT RAIN  32  32 100 S8        29.76R
RUGBY            N/A     34  32  93 CALM      29.73F
STANLEY        FAIR      34  34 100 NW6       29.77R
TIOGA          FAIR      34  34 100 CALM      29.75F
$$

CITY           SKY/WX    TMP DP  RH WIND       PRES   REMARKS
GRAND FORKS    CLOUDY    36  28  73 S15       29.84F
GRAND FORKS AF FAIR      35  27  73 S12       29.84F
DEVILS LAKE    FAIR      32  28  85 SE5       29.76F
FARGO          LGT RAIN  38  28  67 S28G36    29.88S
GRAFTON        FAIR      34  28  80 S13       29.85F
GWINNER        SUNNY     37  32  81 MISG      29.84F
ROLLA          FAIR      28  30 100 SW5       29.74F
$$

CITY           SKY/WX    TMP DP  RH WIND       PRES   REMARKS
ABERDEEN       FAIR      40  28  62 S20       29.79F
MOBRIDGE       FAIR      45  31  58 SE10      29.68F
BUFFALO          N/A     45  41  86 NE10      29.63F
RAPID CITY     FAIR      50  40  68 N17G26    29.64F
GLASGOW        FAIR      36  31  82 W8        29.77R
SIDNEY         FAIR      38  35  89 SE3       29.75S
WOLF POINT     PTSUNNY   37  34  89 SW6       29.76R
GLENDIVE       CLOUDY    46  40  79 S5        29.76R
MILES CITY     CLOUDY    46  41  82 NW9       29.75S
BAKER          CLOUDY    43  36  76 NE8       29.72F
$$

CITY           SKY/WX    TMP DP  RH WIND       PRES   REMARKS
BILLINGS       CLOUDY    44  37  76 NW13      29.78R
GREAT FALLS    FAIR      41  30  65 SW9       29.85R
REGINA         CLOUDY    30  28  93 N7        29.79R FOG
ESTEVAN        PTSUNNY   32  30  93 W6        29.75R
$$





USA.gov is the U.S. government's official web portal to all federal, state and local government web resources and services.